Showing default

NEONSAT-1, 59587

Orbit data source: Space-Track

NEONSAT-1, 59587 is a payload satellite owned by KAIST (KR) in SSO that was launched on Tue, 23 Apr 2024 UTC via an ELECTRON launch vehicle from the Rocket Lab Launch Complex (RLLC). Payload-class satellites include a variety of spacecraft equipped with specific instruments for various scientific and technological missions. These include communications satellites like Starlink; space stations such as the ISS; scientific satellites like the Hubble; Earth observation satellites from companies like Planet Labs, Umbra, and HawkEye 360; GPS; miniature CubeSats for education and research; and military/defense satellites.

Loading next visibility...
Identifier
59587, 2024-077A
Orbit
SSO
Last TLE update
7 hours ago
Origin
Manufacturer
KAIST/SATRHW
Mission
Operational spacecraft
Bus & Motor
NEONSAT, Unknown motor
Mass
~100 kg wet, ~100 kg dry
Launch date (UTC)
2024-04-23 (1 year ago)
Launch vehicle
ELECTRON
Launch site
Rocket Lab Launch Complex (RLLC)
Object type
Payload
Rocket body
Debris
Shape & HBR
Unknown
Radar Cross Section
Medium (>0.1 m² and <1 m²)

Expand to show TLE details & history

TLE from 7 hours ago
0 NEONSAT-1
1 59587U 24077A   25188.52817869  .00006253  00000-0  22145-3 0  9997
2 59587  97.3793 268.7104 0011675 175.1872 184.9482 15.29419064 66901
Epoch: 2025-07-07T12:40Z
TLE epoch observation values (Epoch: 2025-07-07T12:40:34.638Z)
Latitude
-0.00011°
Longitude
152.82987°
Altitude
488.628 km
Speed
7.616 km/s
True Right ascension
17h 54m 50s
True Declination
0° 00' 00"
Sunlit
Object was in full shadow at epoch
Visualization orbit readout
Latitude
53.34192°
Longitude
143.13369°
Altitude
490.36 km
Speed
7.623 km/s
Apparent Right ascension
18h 20m 54s
Apparent Declination
9° 14' 06"
Sunlit
Object is in daylight
Visualization observer readout
Local Sidereal Time
07:15:04
Azimuth
17.372° NNE
Elevation
-39.273°
Doppler factor
1
Orbital elements
Apogee altitude
482.5 km
Perigee altitude
466.499 km
Semi-major axis
6,852.637 km
Eccentricity
0.00117
Inclination
97.3793°
RAAN
268.7104°
Arg. of periapsis
175.1872°
True anomaly
Unknown
Mean anomaly
184.9482°
Eccentric anomaly
Unknown
Mean motion
3.8261 °/min
Orbital period
94.09 mins
BSTAR
0.00022145
Loading maneuver chart data...
Loading SW <> Apogee altitude chart data...
Loading historical data...
Loading historical data...
Loading historical data...
Loading historical data...
Loading historical data...
Loading historical data...
Loading historical data...
Other satellites on launch #77 in the year 2024 (2024-04-23 UTC)

NEONSAT-1 Visibility forecast

Observer location: undefined°, undefined°

Span
Click to sort rows by Start time (UTC) header in descending order
Start Az.
Max El. time (UTC)
Max El. Az.
Max El.
End time (UTC)
End Az.
4 mins2025-07-08 06:05:31.768Z223.937° SW2025-07-08 06:07:31.768Z274.861° WNW22.684°2025-07-08 06:09:31.768Z314.909° NW
|